CZ-4 DEB, 26234

Orbit data source: Space-Track

CZ-4 DEB, 26234 is space debris in SSO originally from a launch on Thu, 14 Oct 1999 UTC launched from the Taiyaun Space Center, China (TSC). Debris objects in space refer to the collection of defunct objects orbiting the Earth. Examples of debris include non-operational satellites, rocket bodies, and fragments generated from explosions, collisions, or faulty payload assembly.

Loading next visibility...
Identifier
26234, 1999-057DY
Orbit
SSO
Country
Flag of CNCN / PRC
Related business
Manufacturer
Unknown
Mission
Spacecraft
Bus & Motor
Unknown
Mass
Unknown
Launch date (UTC)
1999-10-14 (26 years ago)
Launch vehicle
Unknown
Launch site
Taiyaun Space Center, China (TSC)
Object type
Payload
Rocket body
Debris
Shape & HBR
Unknown shape, 0.2 m
Radar Cross Section
Small (<0.1 m²)

Expand to show TLE details & history
Last TLE update: 7 hours ago

TLE from 7 hours ago
0 CZ-4 DEB
1 26234U 99057DY  26036.87140439  .00001159  00000-0  27745-3 0  9994
2 26234  98.5925 152.6869 0010153 311.8637 167.9805 14.55485892371214
Epoch: 2026-02-05T20:54Z
TLE epoch observation values (Epoch: 2026-02-05T20:54:49.339Z)
Latitude
59.12923°
Longitude
-102.47507°
Altitude
724.825 km
Speed
7.495 km/s
True Right ascension
23h 08m 59s
True Declination
58° 58' 37"
Sunlit
Object was in daylight at epoch
Visualization orbit readout
Latitude
Unknown
Longitude
Unknown
Altitude
Unknown
Speed
Unknown
Apparent Right ascension
Unknown
Apparent Declination
Unknown
Sunlit
N/A
Visualization observer readout
Local Sidereal Time
06:09:58
Azimuth
Unknown
Elevation
Unknown
Doppler factor
Unknown
Orbital elements
Apogee altitude
712.084 km
Perigee altitude
697.702 km
Semi-major axis
7,083.03 km
Eccentricity
0.00102
Inclination
98.5925°
RAAN
152.6869°
Arg. of periapsis
311.8637°
True anomaly
168.0047°
Mean anomaly
167.9805°
Eccentric anomaly
167.9926°
Mean motion
3.64095 °/min
Orbital period
98.88 mins
BSTAR
0.00027745
Loading maneuver chart data...
Computing Atmospheric mass density...
Loading historical data...
Loading historical data...
Loading historical data...
Loading historical data...
Loading historical data...
Loading historical data...
Loading historical data...

Documentation

Showing up to 5 results
|